Time,TemperatureF,DewpointF,PressureIn,WindDirection,WindDirectionDegrees,WindSpeedMPH,WindSpeedGustMPH,Humidity,HourlyPrecipIn,Conditions,Clouds,dailyrainin,SolarRadiationWatts/m^2,SoftwareType,DateUTC
2013-01-16 00:03:00,50.0,50.0,30.38,SE,129,5.0,10.0,100,0.00,,,0.00,0.000000,,2013-01-16 05:03:00,
2013-01-16 00:12:00,50.0,50.0,30.38,SE,129,5.0,10.0,100,0.00,,,0.00,0.000000,,2013-01-16 05:12:00,
2013-01-16 00:33:00,49.0,49.0,30.38,East,101,3.0,9.0,100,0.00,,,0.00,0.000000,,2013-01-16 05:33:00,
2013-01-16 00:42:00,49.0,49.0,30.38,East,101,3.0,9.0,100,0.00,,,0.00,0.000000,,2013-01-16 05:42:00,
2013-01-16 00:53:00,49.0,49.0,30.38,East,101,3.0,9.0,100,0.00,,,0.00,0.000000,,2013-01-16 05:53:00,
2013-01-16 01:03:00,49.0,49.0,30.38,East,101,3.0,9.0,100,0.00,,,0.00,0.000000,,2013-01-16 06:03:00,
2013-01-16 01:12:00,49.0,49.0,30.38,East,101,3.0,9.0,100,0.00,,,0.00,0.000000,,2013-01-16 06:12:00,
2013-01-16 01:33:00,49.0,49.0,30.36,WSW,244,2.0,6.0,100,0.00,,,0.00,0.000000,,2013-01-16 06:33:00,
2013-01-16 01:43:00,49.0,49.0,30.36,WSW,244,2.0,6.0,100,0.00,,,0.00,0.000000,,2013-01-16 06:43:00,
2013-01-16 01:53:00,49.0,49.0,30.36,WSW,244,2.0,6.0,100,0.00,,,0.00,0.000000,,2013-01-16 06:53:00,
2013-01-16 02:02:00,49.0,49.0,30.36,WSW,244,2.0,6.0,100,0.00,,,0.00,0.000000,,2013-01-16 07:02:00,
2013-01-16 02:12:00,49.0,49.0,30.36,WSW,244,2.0,6.0,100,0.00,,,0.00,0.000000,,2013-01-16 07:12:00,
2013-01-16 02:33:00,51.0,51.0,30.36,ENE,68,2.0,5.0,100,0.00,,,0.00,0.000000,,2013-01-16 07:33:00,
2013-01-16 02:42:00,51.0,51.0,30.36,ENE,68,2.0,5.0,100,0.00,,,0.00,0.000000,,2013-01-16 07:42:00,
2013-01-16 02:52:00,51.0,51.0,30.36,ENE,68,2.0,5.0,100,0.00,,,0.00,0.000000,,2013-01-16 07:52:00,
2013-01-16 03:03:00,51.0,51.0,30.36,ENE,68,2.0,5.0,100,0.00,,,0.00,0.000000,,2013-01-16 08:03:00,
2013-01-16 03:12:00,51.0,51.0,30.36,ENE,68,2.0,5.0,100,0.00,,,0.00,0.000000,,2013-01-16 08:12:00,
2013-01-16 03:42:00,51.0,51.0,30.35,East,80,2.0,6.0,100,0.00,,,0.00,0.000000,,2013-01-16 08:42:00,
2013-01-16 03:53:00,51.0,51.0,30.35,East,80,2.0,6.0,100,0.00,,,0.00,0.000000,,2013-01-16 08:53:00,
2013-01-16 04:02:00,51.0,51.0,30.35,East,80,2.0,6.0,100,0.00,,,0.00,0.000000,,2013-01-16 09:02:00,
2013-01-16 04:12:00,51.0,51.0,30.35,East,80,2.0,6.0,100,0.00,,,0.00,0.000000,,2013-01-16 09:12:00,
2013-01-16 04:33:00,51.0,51.0,30.34,NNE,25,4.0,5.0,100,0.00,,,0.00,0.000000,,2013-01-16 09:33:00,
2013-01-16 04:43:00,51.0,51.0,30.34,NNE,25,4.0,5.0,100,0.00,,,0.00,0.000000,,2013-01-16 09:43:00,
2013-01-16 04:53:00,51.0,51.0,30.34,NNE,25,4.0,5.0,100,0.00,,,0.00,0.000000,,2013-01-16 09:53:00,
2013-01-16 05:03:00,51.0,51.0,30.34,NNE,25,4.0,5.0,100,0.00,,,0.00,0.000000,,2013-01-16 10:03:00,
2013-01-16 05:12:00,51.0,51.0,30.34,NNE,25,4.0,5.0,100,0.00,,,0.00,0.000000,,2013-01-16 10:12:00,
2013-01-16 05:33:00,51.0,51.0,30.32,East,98,3.0,7.0,100,0.01,,,0.01,0.000000,,2013-01-16 10:33:00,
2013-01-16 05:43:00,51.0,51.0,30.32,East,98,3.0,7.0,100,0.01,,,0.01,0.000000,,2013-01-16 10:43:00,
2013-01-16 05:53:00,51.0,51.0,30.32,East,98,3.0,7.0,100,0.01,,,0.01,0.000000,,2013-01-16 10:53:00,
2013-01-16 06:02:00,51.0,51.0,30.32,East,98,3.0,7.0,100,0.01,,,0.01,0.000000,,2013-01-16 11:02:00,
2013-01-16 06:12:00,51.0,51.0,30.32,East,98,3.0,7.0,100,0.01,,,0.01,0.000000,,2013-01-16 11:12:00,
2013-01-16 06:33:00,51.0,51.0,30.32,ESE,102,4.0,6.0,100,0.00,,,0.01,0.000000,,2013-01-16 11:33:00,
2013-01-16 06:43:00,51.0,51.0,30.32,ESE,102,4.0,6.0,100,0.00,,,0.01,0.000000,,2013-01-16 11:43:00,
2013-01-16 06:53:00,51.0,51.0,30.32,ESE,102,4.0,6.0,100,0.00,,,0.01,0.000000,,2013-01-16 11:53:00,
2013-01-16 07:03:00,51.0,51.0,30.32,ESE,102,4.0,6.0,100,0.00,,,0.01,0.000000,,2013-01-16 12:03:00,
2013-01-16 07:13:00,51.0,51.0,30.32,ESE,102,4.0,6.0,100,0.00,,,0.01,0.000000,,2013-01-16 12:13:00,
2013-01-16 07:33:00,48.0,48.0,30.33,ENE,68,3.0,9.0,100,0.00,,,0.01,0.000000,,2013-01-16 12:33:00,
2013-01-16 07:43:00,48.0,48.0,30.33,ENE,68,3.0,9.0,100,0.00,,,0.01,0.000000,,2013-01-16 12:43:00,
2013-01-16 07:53:00,48.0,48.0,30.33,ENE,68,3.0,9.0,100,0.00,,,0.01,0.000000,,2013-01-16 12:53:00,
2013-01-16 08:03:00,48.0,48.0,30.33,ENE,68,3.0,9.0,100,0.00,,,0.01,0.000000,,2013-01-16 13:03:00,
2013-01-16 08:12:00,48.0,48.0,30.33,ENE,68,3.0,9.0,100,0.00,,,0.01,0.000000,,2013-01-16 13:12:00,
2013-01-16 08:43:00,48.0,48.0,30.35,NE,36,4.0,8.0,100,0.00,,,0.01,13.000000,,2013-01-16 13:43:00,
2013-01-16 08:53:00,48.0,48.0,30.35,NE,36,4.0,8.0,100,0.00,,,0.01,13.000000,,2013-01-16 13:53:00,
2013-01-16 09:03:00,48.0,48.0,30.35,NE,36,4.0,8.0,100,0.00,,,0.01,13.000000,,2013-01-16 14:03:00,
2013-01-16 09:12:00,48.0,48.0,30.35,NE,36,4.0,8.0,100,0.00,,,0.01,13.000000,,2013-01-16 14:12:00,
2013-01-16 09:33:00,49.0,49.0,30.35,East,85,3.0,5.0,100,0.00,,,0.01,64.000000,,2013-01-16 14:33:00,
2013-01-16 09:43:00,49.0,49.0,30.35,East,85,3.0,5.0,100,0.00,,,0.01,64.000000,,2013-01-16 14:43:00,
2013-01-16 09:53:00,49.0,49.0,30.35,East,85,3.0,5.0,100,0.00,,,0.01,64.000000,,2013-01-16 14:53:00,
2013-01-16 10:03:00,49.0,49.0,30.35,East,85,3.0,5.0,100,0.00,,,0.01,64.000000,,2013-01-16 15:03:00,
2013-01-16 10:12:00,49.0,49.0,30.35,East,85,3.0,5.0,100,0.00,,,0.01,64.000000,,2013-01-16 15:12:00,
2013-01-16 10:43:00,52.0,52.0,30.35,East,93,2.0,6.0,100,0.00,,,0.01,112.000000,,2013-01-16 15:43:00,
2013-01-16 10:53:00,52.0,52.0,30.35,East,93,2.0,6.0,100,0.00,,,0.01,112.000000,,2013-01-16 15:53:00,
2013-01-16 11:04:00,52.0,52.0,30.35,East,93,2.0,6.0,100,0.00,,,0.01,112.000000,,2013-01-16 16:04:00,
2013-01-16 11:12:00,52.0,52.0,30.35,East,93,2.0,6.0,100,0.00,,,0.01,112.000000,,2013-01-16 16:12:00,
2013-01-16 11:33:00,56.0,56.0,30.33,SSW,209,2.0,4.0,100,0.00,,,0.01,211.000000,,2013-01-16 16:33:00,
2013-01-16 11:43:00,56.0,56.0,30.33,SSW,209,2.0,4.0,100,0.00,,,0.01,211.000000,,2013-01-16 16:43:00,
2013-01-16 11:53:00,56.0,56.0,30.33,SSW,209,2.0,4.0,100,0.00,,,0.01,211.000000,,2013-01-16 16:53:00,
2013-01-16 12:03:00,56.0,56.0,30.33,SSW,209,2.0,4.0,100,0.00,,,0.01,211.000000,,2013-01-16 17:03:00,
2013-01-16 12:12:00,56.0,56.0,30.33,SSW,209,2.0,4.0,100,0.00,,,0.01,211.000000,,2013-01-16 17:12:00,
2013-01-16 12:33:00,57.0,57.0,30.32,NNE,25,8.0,10.0,100,0.00,,,0.01,156.000000,,2013-01-16 17:33:00,
2013-01-16 12:44:00,57.0,57.0,30.32,NNE,25,8.0,10.0,100,0.00,,,0.01,156.000000,,2013-01-16 17:44:00,
2013-01-16 12:53:00,57.0,57.0,30.32,NNE,25,8.0,10.0,100,0.00,,,0.01,156.000000,,2013-01-16 17:53:00,
2013-01-16 13:03:00,57.0,57.0,30.32,NNE,25,8.0,10.0,100,0.00,,,0.01,156.000000,,2013-01-16 18:03:00,
2013-01-16 13:13:00,57.0,57.0,30.32,NNE,25,8.0,10.0,100,0.00,,,0.01,156.000000,,2013-01-16 18:13:00,
2013-01-16 13:33:00,57.0,56.0,30.31,NE,42,5.0,13.0,98,0.00,,,0.01,200.000000,,2013-01-16 18:33:00,
2013-01-16 13:43:00,57.0,56.0,30.31,NE,42,5.0,13.0,98,0.00,,,0.01,200.000000,,2013-01-16 18:43:00,
2013-01-16 13:53:00,57.0,56.0,30.31,NE,42,5.0,13.0,98,0.00,,,0.01,200.000000,,2013-01-16 18:53:00,
2013-01-16 14:03:00,57.0,56.0,30.31,NE,42,5.0,13.0,98,0.00,,,0.01,200.000000,,2013-01-16 19:03:00,
2013-01-16 14:13:00,57.0,56.0,30.31,NE,42,5.0,13.0,98,0.00,,,0.01,200.000000,,2013-01-16 19:13:00,
2013-01-16 14:33:00,51.0,50.0,30.32,ENE,63,9.0,15.0,98,0.01,,,0.02,68.000000,,2013-01-16 19:33:00,
2013-01-16 14:43:00,51.0,50.0,30.32,ENE,63,9.0,15.0,98,0.01,,,0.02,68.000000,,2013-01-16 19:43:00,
2013-01-16 14:53:00,51.0,50.0,30.32,ENE,63,9.0,15.0,98,0.01,,,0.02,68.000000,,2013-01-16 19:53:00,
2013-01-16 15:03:00,51.0,50.0,30.32,ENE,63,9.0,15.0,98,0.01,,,0.02,68.000000,,2013-01-16 20:03:00,
2013-01-16 15:12:00,51.0,50.0,30.32,ENE,63,9.0,15.0,98,0.01,,,0.02,68.000000,,2013-01-16 20:12:00,
2013-01-16 15:43:00,48.0,47.0,30.33,NE,52,7.0,12.0,98,0.02,,,0.04,97.000000,,2013-01-16 20:43:00,
2013-01-16 15:53:00,48.0,47.0,30.33,NE,52,7.0,12.0,98,0.02,,,0.04,97.000000,,2013-01-16 20:53:00,
2013-01-16 16:03:00,48.0,47.0,30.33,NE,52,7.0,12.0,98,0.02,,,0.04,97.000000,,2013-01-16 21:03:00,
2013-01-16 16:12:00,48.0,47.0,30.33,NE,52,7.0,12.0,98,0.02,,,0.04,97.000000,,2013-01-16 21:12:00,
2013-01-16 16:43:00,50.0,50.0,30.34,East,81,2.0,11.0,99,0.02,,,0.06,71.000000,,2013-01-16 21:43:00,
2013-01-16 16:53:00,50.0,50.0,30.34,East,81,2.0,11.0,99,0.02,,,0.06,71.000000,,2013-01-16 21:53:00,
2013-01-16 17:03:00,50.0,50.0,30.34,East,81,2.0,11.0,99,0.02,,,0.06,71.000000,,2013-01-16 22:03:00,
2013-01-16 17:12:00,50.0,50.0,30.34,East,81,2.0,11.0,99,0.02,,,0.06,71.000000,,2013-01-16 22:12:00,
2013-01-16 17:33:00,51.0,51.0,30.32,South,188,2.0,5.0,99,0.00,,,0.06,40.000000,,2013-01-16 22:33:00,
2013-01-16 17:43:00,51.0,51.0,30.32,South,188,2.0,5.0,99,0.00,,,0.06,40.000000,,2013-01-16 22:43:00,
2013-01-16 17:53:00,51.0,51.0,30.32,South,188,2.0,5.0,99,0.00,,,0.06,40.000000,,2013-01-16 22:53:00,
2013-01-16 18:03:00,51.0,51.0,30.32,South,188,2.0,5.0,99,0.00,,,0.06,40.000000,,2013-01-16 23:03:00,
2013-01-16 18:12:00,51.0,51.0,30.32,South,188,2.0,5.0,99,0.00,,,0.06,40.000000,,2013-01-16 23:12:00,
2013-01-16 18:33:00,50.0,50.0,30.32,NW,307,1.0,7.0,100,0.00,,,0.06,2.000000,,2013-01-16 23:33:00,
2013-01-16 18:43:00,50.0,50.0,30.32,NW,307,1.0,7.0,100,0.00,,,0.06,2.000000,,2013-01-16 23:43:00,
2013-01-16 18:53:00,50.0,50.0,30.32,NW,307,1.0,7.0,100,0.00,,,0.06,2.000000,,2013-01-16 23:53:00,
2013-01-16 19:03:00,50.0,50.0,30.32,NW,307,1.0,7.0,100,0.00,,,0.06,2.000000,,2013-01-17 00:03:00,
2013-01-16 19:12:00,50.0,50.0,30.32,NW,307,1.0,7.0,100,0.00,,,0.06,2.000000,,2013-01-17 00:12:00,
2013-01-16 19:33:00,52.0,52.0,30.32,ENE,77,2.0,3.0,100,0.00,,,0.06,0.000000,,2013-01-17 00:33:00,
2013-01-16 19:42:00,52.0,52.0,30.32,ENE,77,2.0,3.0,100,0.00,,,0.06,0.000000,,2013-01-17 00:42:00,
2013-01-16 19:53:00,52.0,52.0,30.32,ENE,77,2.0,3.0,100,0.00,,,0.06,0.000000,,2013-01-17 00:53:00,
2013-01-16 20:02:00,52.0,52.0,30.32,ENE,77,2.0,3.0,100,0.00,,,0.06,0.000000,,2013-01-17 01:02:00,
2013-01-16 20:12:00,52.0,52.0,30.32,ENE,77,2.0,3.0,100,0.00,,,0.06,0.000000,,2013-01-17 01:12:00,
2013-01-16 20:33:00,52.0,52.0,30.32,SSW,198,1.0,6.0,100,0.00,,,0.06,0.000000,,2013-01-17 01:33:00,
2013-01-16 20:43:00,52.0,52.0,30.32,SSW,198,1.0,6.0,100,0.00,,,0.06,0.000000,,2013-01-17 01:43:00,
2013-01-16 20:53:00,52.0,52.0,30.32,SSW,198,1.0,6.0,100,0.00,,,0.06,0.000000,,2013-01-17 01:53:00,
2013-01-16 21:02:00,52.0,52.0,30.32,SSW,198,1.0,6.0,100,0.00,,,0.06,0.000000,,2013-01-17 02:02:00,
2013-01-16 21:12:00,52.0,52.0,30.32,SSW,198,1.0,6.0,100,0.00,,,0.06,0.000000,,2013-01-17 02:12:00,
2013-01-16 21:32:00,52.0,52.0,30.32,WSW,247,1.0,3.0,100,0.00,,,0.06,0.000000,,2013-01-17 02:32:00,
2013-01-16 21:43:00,52.0,52.0,30.32,WSW,247,1.0,3.0,100,0.00,,,0.06,0.000000,,2013-01-17 02:43:00,
2013-01-16 21:52:00,52.0,52.0,30.32,WSW,247,1.0,3.0,100,0.00,,,0.06,0.000000,,2013-01-17 02:52:00,
2013-01-16 22:03:00,52.0,52.0,30.32,WSW,247,1.0,3.0,100,0.00,,,0.06,0.000000,,2013-01-17 03:03:00,
2013-01-16 22:12:00,52.0,52.0,30.32,WSW,247,1.0,3.0,100,0.00,,,0.06,0.000000,,2013-01-17 03:12:00,
2013-01-16 22:33:00,52.0,52.0,30.33,WSW,245,2.0,7.0,100,0.00,,,0.06,0.000000,,2013-01-17 03:33:00,
2013-01-16 22:43:00,52.0,52.0,30.33,WSW,245,2.0,7.0,100,0.00,,,0.06,0.000000,,2013-01-17 03:43:00,
2013-01-16 22:53:00,52.0,52.0,30.33,WSW,245,2.0,7.0,100,0.00,,,0.06,0.000000,,2013-01-17 03:53:00,
2013-01-16 23:02:00,52.0,52.0,30.33,WSW,245,2.0,7.0,100,0.00,,,0.06,0.000000,,2013-01-17 04:02:00,
2013-01-16 23:12:00,52.0,52.0,30.33,WSW,245,2.0,7.0,100,0.00,,,0.06,0.000000,,2013-01-17 04:12:00,
2013-01-16 23:33:00,54.0,54.0,30.31,ESE,114,2.0,5.0,100,0.13,,,0.19,0.000000,,2013-01-17 04:33:00,
2013-01-16 23:43:00,54.0,54.0,30.31,ESE,114,2.0,5.0,100,0.13,,,0.19,0.000000,,2013-01-17 04:43:00,
2013-01-16 23:53:00,54.0,54.0,30.31,ESE,114,2.0,5.0,100,0.13,,,0.19,0.000000,,2013-01-17 04:53:00,